Regional Weather Roundup
Issued by NWS Kansas City/Pleasant Hill, MO

Home | Current Version | Previous Version | Graphics & Text | Print | Product List | Glossary Off
Versions: 1 2 3 4 5 6 7 8 9 10 11 12 13 14 15 16 17 18 19 20 21 22 23 24 25 26 27 28 29 30 31 32 33 34 35 36 37 38 39 40 41 42 43 44 45 46 47 48 49 50

481
ASUS43 KEAX 300910
RWREAX

WEATHER ROUNDUP FOR EASTERN KANSAS AND NORTHWEST MISSOURI
NATIONAL WEATHER SERVICE KANSAS CITY/PLEASANT HILL MO
400 AM CDT FRI SEP 30 2016

KSZ040-057-103>105-MOZ028-029-037-043-301000-
...KANSAS CITY METROPOLITAN AREA...

CITY           SKY/WX    TMP DP  RH WIND       PRES   REMARKS
K.C. INTL      CLEAR     50  46  86 NE7       30.24F
K.C. DOWNTOWN  CLEAR     55  49  80 N3        30.24F
LEES SUMMIT    CLEAR     54  49  83 CALM      30.24F
OLATHE - IXD   CLEAR     50  48  93 NW5       30.25F
OLATHE - OJC   CLEAR     53  48  83 N7        30.24F
LAWRENCE       CLEAR     49  49 100 W3        30.25F

$$

MOZ001>008-011>017-020>025-030>033-038>040-044>046-053-054-301000-
...NORTHERN AND CENTRAL MISSOURI...

CITY           SKY/WX    TMP DP  RH WIND       PRES   REMARKS
ST. JOSEPH     CLEAR     47  45  93 CALM      30.26F
MOSBY          SUNNY     50  48  93 CALM      30.24F
WHITEMAN AFB   CLEAR     52  51  99 NW5       30.21S
CLINTON        CLEAR     50  48  93 CALM      30.22S
SEDALIA        CLEAR     53  49  86 NW6       30.22F
WARSAW         NOT AVBL
CHILLICOTHE      N/A     54  49  83 CALM      30.25F
KIRKSVILLE     CLEAR     53  48  83 N7        30.22F

$$

MOZ041-047>049-056>058-063>065-088>090-097-301000-
...EASTERN AND SOUTHERN MISSOURI...

CITY           SKY/WX    TMP DP  RH WIND       PRES   REMARKS
ST. LOUIS INTL CLOUDY    62  56  80 N12       30.13F
SPIRIT OF STL  CLOUDY    62  57  83 N5        30.13F
COLUMBIA       CLEAR     56  53  90 NW6       30.18F
JEFFERSON CITY CLEAR     56  53  90 NW6       30.18F
ROLLA          PTCLDY    56  53  90 N5        30.16S
OSAGE BEACH    CLEAR     55  52  89 N3        30.19F
SPRINGFIELD    CLEAR     51  47  86 NW5       30.19F
BRANSON        CLEAR     55  48  76 CALM      30.20F
JOPLIN         CLEAR     48  46  93 CALM      30.22F
WEST PLAINS    CLEAR     56  51  84 NW6       30.17S

$$

IAZ060-094-KSZ022-034>040-054-083-096-NEZ052-066-093-301000-
...KANSAS...SOUTHEAST NEBRASKA AND IOWA...

CITY           SKY/WX    TMP DP  RH WIND       PRES   REMARKS
TOPEKA         CLEAR     50  47  89 CALM      30.26F
MANHATTAN      CLEAR     46  44  93 CALM      30.28F
EMPORIA        CLEAR     49  47  93 W6        30.26F
CHANUTE        CLEAR     51  48  89 NW6       30.24F
WICHITA        PTCLDY    50  48  93 NW3       30.27F
OMAHA          CLEAR     47  43  86 N7        30.31S
LINCOLN        CLEAR     45  44  97 N5        30.32F
FALLS CITY     CLEAR     48  46  93 NW6       30.27F
LAMONI         CLEAR     51  48  89 N6        30.27F
DES MOINES     CLEAR     54  49  83 CALM      30.28F

$$





USA.gov is the U.S. government's official web portal to all federal, state and local government web resources and services.